Edwards AFB North Base, CA

7:15 AM PST on December 15, 2019 (GMT -0800)
Edwards AFB North Base

Weather History for K9L2 - May, 2019

Change the Weather History Date:

Thursday, May 2, 2019

  Actual Average (WUND) Record (WUND)
Temperature  
Mean Temperature 62 °F -  
Max Temperature 82 °F - - (-1)
Min Temperature 44 °F - - (-1)
Degree Days  
Heating Degree Days 2    
Growing Degree Days 12 (Base 50)    
Moisture  
Dew Point 33 °F    
Average Humidity 38    
Maximum Humidity 78    
Minimum Humidity 10    
Precipitation  
Precipitation 0.00 in - - ()
Sea Level Pressure  
Sea Level Pressure 29.92 in    
Wind  
Wind Speed 4 mph (South)    
Max Wind Speed 15 mph    
Max Gust Speed -    
Visibility 10 miles    
Events      
Averages and records for this station are not official NWS values.
T = Trace of Precipitation, MM = Missing Value Source: NWS Daily Summary

Daily Weather History Graph

Daily Weather History Graph

Search for Another Location

Airport or City:

Astronomy

May. 02, 2019 Rise Set
Actual Time 5:59 AM PDT 7:37 PM PDT
Civil Twilight 5:32 AM PDT 8:04 PM PDT
Nautical Twilight 5:00 AM PDT 8:37 PM PDT
Astronomical Twilight 4:25 AM PDT 9:12 PM PDT
Moon 5:05 AM PDT (5/2) 5:37 PM PDT (5/2)
Length of Visible Light 14h 32m
Length of Day
13h 37m
Waning Crescent, 5% of the Moon is Illuminated
May 2
Waning Crescent
May 4
New
May 11
First Quarter
May 18
Full
May 26
Last Quarter

Hourly Weather History & Observations

Time (PDT) Temp. Windchill Dew Point Humidity Pressure Visibility Wind Dir Wind Speed Gust Speed Precip Events Conditions
1:58 AM 51.3 °F - 41.7 °F 70% 29.98 in 10.0 mi Calm Calm - N/A   Clear
2:58 AM 51.1 °F - 40.5 °F 67% 29.95 in 10.0 mi Calm Calm - N/A   Clear
3:58 AM 49.8 °F - 39.6 °F 68% 29.94 in 10.0 mi SSE 6.9 mph - N/A   Clear
4:58 AM 44.8 °F 42.4 °F 38.3 °F 78% 29.95 in 10.0 mi North 4.6 mph - N/A   Clear
5:58 AM 44.6 °F 42.2 °F 36.9 °F 74% 29.94 in 10.0 mi East 4.6 mph - N/A   Clear
6:58 AM 48.2 °F - 37.9 °F 68% 29.96 in 10.0 mi Calm Calm - N/A   Clear
7:58 AM 52.7 °F - 38.3 °F 58% 29.97 in 10.0 mi SE 4.6 mph - N/A   Clear
8:58 AM 56.8 °F - 38.8 °F 51% 29.98 in 10.0 mi Calm Calm - N/A   Clear
9:58 AM 63.5 °F - 37.4 °F 38% 29.98 in 10.0 mi SSE 4.6 mph - N/A   Clear
10:58 AM 67.5 °F - 34.7 °F 30% 29.97 in 10.0 mi SSE 4.6 mph - N/A   Clear
11:58 AM 70.0 °F - 33.1 °F 26% 29.95 in 10.0 mi Calm Calm - N/A   Partly Cloudy
12:58 PM 74.1 °F - 30.6 °F 20% 29.93 in 10.0 mi Calm Calm - N/A   Partly Cloudy
1:58 PM 76.8 °F - 27.9 °F 16% 29.91 in 10.0 mi North 4.6 mph - N/A   Partly Cloudy
2:58 PM 79.3 °F - 26.6 °F 14% 29.88 in 10.0 mi SW 3.5 mph - N/A   Clear
3:58 PM 79.5 °F - 24.6 °F 13% 29.86 in 9.0 mi East 5.8 mph - N/A   Clear
4:58 PM 81.7 °F - 23.4 °F 12% 29.84 in 8.0 mi SSE 10.4 mph - N/A   Clear
5:58 PM 81.3 °F - 19.6 °F 10% 29.83 in 8.0 mi South 9.2 mph - N/A   Clear
6:58 PM 77.7 °F - 32.2 °F 19% 29.84 in 8.0 mi WSW 15.0 mph - N/A   Clear
7:58 PM 70.9 °F - 31.3 °F 23% 29.86 in 9.0 mi WSW 13.8 mph - N/A   Clear
8:58 PM 67.1 °F - 29.3 °F 24% 29.88 in 10.0 mi WSW 6.9 mph - N/A   Clear
9:58 PM 64.8 °F - 30.0 °F 27% 29.90 in 10.0 mi South 6.9 mph - N/A   Clear
10:58 PM 59.9 °F - 29.7 °F 32% 29.90 in 10.0 mi South 6.9 mph - N/A   Clear
11:58 PM 58.5 °F - 27.9 °F 31% 29.91 in 10.0 mi South 8.1 mph - N/A   Clear